FENGYUN 1C DEB

Satellite information

Favourite Embed

Satellite Type and Status

DEBRISIN ORBIT

Key statistics

Satellite FENGYUN 1C DEB at a glance.

Uptime

9658

Days in orbit

Revolutions

≈ 13.9

Per day

Orbit

SSO

Sun Synchronous Orbit

Inclination

98.5

Latest

Satellite identification and parameters

Extended collection of information and parameters for FENGYUN 1C DEB.

Object identification

Identified? True

Debris? True

Object name: FENGYUN 1C DEB

International designator: 1999-025TK

Object number (NORAD): 30154

Object ID (CCSDS): 30154

Country: PEOPLES REPUBLIC OF CHINA (PRC)

Current information (Y/N): Y

RCS size: SMALL

Orbital parameters

Period: 103.92 minutes

Inclination: 98.4542 deg

SMA: 7321.94 km

Apoapsis: 1076.026 km

Periapsis: 811.585 km

RAAN: 336.4632 deg

Eccentricy: 0.01805814

Argument of periapsis: 357.3923 deg

Mean anomaly: 31.1086 deg

Mean motion: 13.85681684 rev/day

Mean motion (dot): 0.00002173 rev/day2

B* drag term: 0.0017010301 1/REarth

Two-line elements (TLE)

Creation date: Oct. 16, 2025, 6:34 p.m.

Reference frame: TEME

Reference center: EARTH

Epoch: Oct. 16, 2025, 2:12 a.m. UTC

TLE line 0: 0 FENGYUN 1C DEB

TLE line 1: 1 30154U 99025TK 25289.09174228 .00002173 00000-0 17010-2 0 9991

TLE line 2: 2 30154 98.4542 336.4632 0180581 357.3923 31.1086 13.85681684941866

Live tracking on map

Real-time ground track for satellite FENGYUN 1C DEB.

In-orbit conjunctions

A list of the most updated potential collisions computed for object FENGYUN 1C DEB.

Target Orbit TCA Probability of collision Miss distance Type
METEOR 1-13 LEO 2025-07-26 19:48:04 0.0001452527 667.0 (m) PAYLOAD
FENGYUN 1C DEB SSO 2025-02-10 14:39:52 0.0001297129 161.0 (m) DEBRIS

Associated space launch

Chinese polar orbiting meteorological satellite

FENGYUN 1C DEB was lifted into orbit during the mission ‘Long March 4B | Feng Yun 1C’, on board a Long March 4B space rocket.

The launch took place on May 10, 1999, 1:33 a.m. from Launch Complex 7.

For more information about the launch, click the button.

Launch to space Long March 4B | Feng Yun 1C
Long March 4B | Feng Yun 1C

Agency: N/A

Status: Launch Successful

Launch date: May 10, 1999, 1:33 a.m. UTC

Rocket: Long March 4B

Launch pad: Launch Complex 7

Location: Taiyuan Satellite Launch Center, People's Republic of China

...

Latest news about this satellite

There are no fresh news available about this satellite. Check back as we update our databases every day.


Newsletter sign-up

Weekly statistics, charts and insights to help you stay on top of the space industry.